Date String (YYYY-MM-DD hh:mm:ss) UTC,Instrument flags,absolute air pressure of the measurement (hPa),sample flow rate (lpm),inlet stack bypass flow (lpm),air temperature of the measurement (°C),ambient temperature measured by the external sensor (°C),aerosol sample conditioner tube jacket temperature (°C),OPC LED temperature (°C),internal box temperature (°C),relative humidity of the measurement (%),span deviation,mass concentration of particles derived from Lorenz-Mie calculation of OPC scattering (μg/m³),mass concentration of particles derived from Lorenz-Mie calculation of OPC scattering (μg/m³),mass concentration of particles derived from Lorenz-Mie calculation of OPC scattering (μg/m³)
DateTimeUTC,F1_M11,P_M11,Q1_M11,Q2_M11,T1_M11,T2_M11,T3_M11,T4_M11,T5_M11,U1_M11,ZSPAN_M11,X0_M11,X2_M11,X1_M11
2024-01-13 16:00:00,SystemResetWarning,0824.4,4.99,000.00,019.3,019.4,000.0,027.4,020.9,3.5,0000.0,0004.61,0001.80,0001.47
2024-01-13 16:01:00,SystemResetWarning,0824.3,4.98,000.00,019.2,019.1,000.0,027.4,020.3,3.5,0000.0,0003.22,0001.79,0001.47
2024-01-13 16:02:00,SystemResetWarning,0824.0,5.00,000.00,019.1,018.7,000.0,027.4,020.0,3.5,0000.0,0003.16,0001.79,0001.48
2024-01-13 16:03:00,SystemResetWarning,0824.0,5.01,000.00,019.1,018.3,000.0,027.5,020.0,3.5,0000.0,0002.85,0001.80,0001.48
2024-01-13 16:04:00,SystemResetWarning,0824.2,5.00,000.00,019.1,018.1,000.0,027.5,020.1,3.5,0000.0,0003.79,0001.82,0001.49
2024-01-13 16:05:00,SystemResetWarning,0824.4,5.01,000.00,019.1,018.4,000.0,027.4,020.5,3.5,0000.0,0003.91,0001.82,0001.52
2024-01-13 16:06:00,SystemResetWarning,0824.6,5.00,000.00,019.2,019.1,000.0,027.4,020.9,3.5,0000.0,0003.96,0001.87,0001.56
2024-01-13 16:07:00,SystemResetWarning,0824.3,4.99,000.00,019.3,019.5,000.0,027.4,021.0,3.5,0000.0,0004.05,0001.94,0001.63
2024-01-13 16:08:00,SystemResetWarning,0824.5,4.99,000.00,019.3,019.3,000.0,027.4,020.4,3.5,0000.0,0004.87,0002.03,0001.70
2024-01-13 16:09:00,SystemResetWarning,0824.6,5.00,000.00,019.2,018.9,000.0,027.4,020.0,3.5,0000.0,0005.36,0002.12,0001.77
2024-01-13 16:10:00,SystemResetWarning,0824.3,5.00,000.00,019.1,018.5,000.0,027.5,020.0,3.5,0000.0,0005.38,0002.16,0001.81
2024-01-13 16:11:00,SystemResetWarning,0824.0,5.00,000.00,019.1,018.1,000.0,027.5,020.1,3.5,0000.0,0005.41,0002.23,0001.86
2024-01-13 16:12:00,SystemResetWarning,0824.2,5.01,000.00,019.1,018.4,000.0,027.4,020.5,3.5,0000.0,0005.58,0002.32,0001.92
2024-01-13 16:13:00,SystemResetWarning,0824.6,5.01,000.00,019.3,019.1,000.0,027.4,021.0,3.5,0000.0,0005.65,0002.37,0001.97
2024-01-13 16:14:00,SystemResetWarning,0824.4,4.99,000.00,019.4,019.5,000.0,027.5,021.0,3.5,0000.0,0005.68,0002.45,0002.00
2024-01-13 16:15:00,SystemResetWarning,0824.3,4.99,000.00,019.3,019.2,000.0,027.4,020.4,3.5,0000.0,0004.89,0002.48,0002.01
2024-01-13 16:16:00,SystemResetWarning,0824.4,5.00,000.00,019.2,018.8,000.0,027.4,020.0,3.5,0000.0,0004.57,0002.49,0002.02
2024-01-13 16:17:00,SystemResetWarning,0824.3,5.01,000.00,019.2,018.4,000.0,027.5,020.0,3.5,0000.0,0004.59,0002.48,0002.01
2024-01-13 16:18:00,SystemResetWarning,0824.4,5.01,000.00,019.1,018.1,000.0,027.5,020.1,3.5,0000.0,0005.94,0002.43,0001.97
2024-01-13 16:19:00,SystemResetWarning,0824.7,5.01,000.00,019.2,018.5,000.0,027.5,020.6,3.5,0000.0,0005.84,0002.40,0001.93
2024-01-13 16:20:00,SystemResetWarning,0824.6,5.00,000.00,019.3,019.2,000.0,027.5,020.9,3.5,0000.0,0005.58,0002.32,0001.86
2024-01-13 16:21:00,SystemResetWarning,0824.3,4.99,000.00,019.3,019.1,000.0,027.5,020.4,3.5,0000.0,0005.83,0002.26,0001.80
2024-01-13 16:22:00,SystemResetWarning,0824.1,4.99,000.00,019.2,018.8,000.0,027.5,020.0,3.5,0000.0,0005.69,0002.16,0001.73
2024-01-13 16:23:00,SystemResetWarning,0824.1,5.01,000.00,019.1,018.4,000.0,027.5,020.0,3.5,0000.0,0005.54,0002.06,0001.67
2024-01-13 16:24:00,SystemResetWarning,0824.4,5.01,000.00,019.1,018.2,000.0,027.5,020.1,3.5,0000.0,0005.41,0001.99,0001.62
2024-01-13 16:25:00,SystemResetWarning,0824.4,5.00,000.00,019.2,018.6,000.0,027.5,020.6,3.5,0000.0,0005.30,0001.92,0001.59
2024-01-13 16:26:00,SystemResetWarning,0824.7,5.00,000.00,019.3,019.3,000.0,027.4,021.1,3.5,0000.0,0005.27,0001.91,0001.59
2024-01-13 16:27:00,SystemResetWarning,0824.6,4.98,000.00,019.4,019.5,000.0,027.5,020.8,3.5,0000.0,0005.29,0001.90,0001.57
2024-01-13 16:28:00,SystemResetWarning,0824.5,4.99,000.00,019.3,019.0,000.0,027.5,020.1,3.5,0000.0,0005.34,0001.91,0001.57
2024-01-13 16:29:00,SystemResetWarning,0824.7,5.00,000.00,019.2,018.6,000.0,027.5,020.0,3.5,0000.0,0004.97,0001.94,0001.55
2024-01-13 16:30:00,SystemResetWarning,0824.3,5.00,000.00,019.1,018.3,000.0,027.5,020.0,3.5,0000.0,0003.70,0001.94,0001.57
2024-01-13 16:31:00,SystemResetWarning,0824.3,5.00,000.00,019.1,017.9,000.0,027.5,020.0,3.5,0000.0,0003.50,0001.95,0001.58
2024-01-13 16:32:00,SystemResetWarning,0824.4,5.01,000.00,019.1,018.1,000.0,027.5,020.4,3.5,0000.0,0002.94,0001.99,0001.60
2024-01-13 16:33:00,SystemResetWarning,0824.7,5.00,000.00,019.2,018.9,000.0,027.5,020.8,3.5,0000.0,0002.97,0002.00,0001.60
2024-01-13 16:34:00,SystemResetWarning,0824.7,5.00,000.00,019.3,019.5,000.0,027.5,021.0,3.5,0000.0,0003.18,0002.06,0001.59
2024-01-13 16:35:00,SystemResetWarning,0824.4,4.98,000.00,019.3,019.3,000.0,027.5,020.4,3.5,0000.0,0003.59,0002.09,0001.59
2024-01-13 16:36:00,SystemResetWarning,0824.6,5.00,000.00,019.2,018.9,000.0,027.5,020.0,3.5,0000.0,0004.05,0002.11,0001.59
2024-01-13 16:37:00,SystemResetWarning,0824.6,5.01,000.00,019.1,018.5,000.0,027.5,020.0,3.5,0000.0,0004.00,0002.12,0001.59
2024-01-13 16:38:00,SystemResetWarning,0824.5,5.01,000.00,019.1,018.2,000.0,027.5,020.0,3.5,0000.0,0004.04,0002.10,0001.57
2024-01-13 16:39:00,SystemResetWarning,0824.3,5.00,000.00,019.1,018.4,000.0,027.5,020.5,3.6,0000.0,0004.43,0002.14,0001.58
2024-01-13 16:40:00,SystemResetWarning,0824.5,5.00,000.00,019.2,019.2,000.0,027.5,020.9,3.5,0000.0,0004.69,0002.11,0001.58
2024-01-13 16:41:00,SystemResetWarning,0824.8,5.00,000.00,019.4,019.7,000.0,027.5,021.1,3.5,0000.0,0004.84,0002.13,0001.56
2024-01-13 16:42:00,SystemResetWarning,0824.8,4.99,000.00,019.4,019.5,000.0,027.5,020.6,3.5,0000.0,0004.85,0002.12,0001.55
2024-01-13 16:43:00,SystemResetWarning,0824.5,4.98,000.00,019.2,019.0,000.0,027.5,020.1,3.6,0000.0,0004.87,0002.14,0001.54
2024-01-13 16:44:00,SystemResetWarning,0824.3,5.01,000.00,019.1,018.6,000.0,027.5,020.0,3.6,0000.0,0004.93,0002.12,0001.52
2024-01-13 16:45:00,SystemResetWarning,0824.4,5.01,000.00,019.1,018.2,000.0,027.5,020.0,3.6,0000.0,0004.91,0002.08,0001.52
2024-01-13 16:46:00,SystemResetWarning,0824.7,5.00,000.00,019.1,018.1,000.0,027.5,020.2,3.6,0000.0,0004.66,0002.05,0001.53
2024-01-13 16:47:00,SystemResetWarning,0824.6,5.00,000.00,019.2,018.7,000.0,027.5,020.7,3.6,0000.0,0004.23,0002.08,0001.53
2024-01-13 16:48:00,SystemResetWarning,0824.3,5.00,000.00,019.4,019.7,000.0,027.5,021.2,3.6,0000.0,0005.00,0002.09,0001.52
2024-01-13 16:49:00,SystemResetWarning,0824.7,4.99,000.00,019.4,019.7,000.0,027.5,020.9,3.6,0000.0,0004.99,0002.12,0001.53
2024-01-13 16:50:00,SystemResetWarning,0824.7,4.99,000.00,019.3,019.3,000.0,027.5,020.3,3.6,0000.0,0004.72,0002.09,0001.52
2024-01-13 16:51:00,SystemResetWarning,0824.4,5.02,000.00,019.2,018.9,000.0,027.5,020.0,3.6,0000.0,0004.20,0002.07,0001.50
2024-01-13 16:52:00,SystemResetWarning,0824.4,5.01,000.00,019.1,018.5,000.0,027.5,020.0,3.6,0000.0,0004.01,0002.01,0001.49
2024-01-13 16:53:00,SystemResetWarning,0824.5,4.98,000.00,019.1,018.2,000.0,027.6,020.0,3.7,0000.0,0004.07,0002.02,0001.48
2024-01-13 16:54:00,SystemResetWarning,0824.7,5.00,000.00,019.1,018.2,000.0,027.5,020.2,3.7,0000.0,0004.01,0001.98,0001.48
2024-01-13 16:55:00,SystemResetWarning,0824.7,5.02,000.00,019.2,018.8,000.0,027.5,020.7,3.6,0000.0,0003.88,0001.96,0001.49
2024-01-13 16:56:00,SystemResetWarning,0824.8,4.99,000.00,019.3,019.5,000.0,027.5,020.9,3.6,0000.0,0003.93,0001.98,0001.51
2024-01-13 16:57:00,SystemResetWarning,0824.9,4.99,000.00,019.3,019.3,000.0,027.5,020.4,3.7,0000.0,0005.30,0001.95,0001.50
2024-01-13 16:58:00,SystemResetWarning,0824.8,5.00,000.00,019.2,018.8,000.0,027.5,020.0,3.7,0000.0,0005.12,0001.90,0001.50
2024-01-13 16:59:00,SystemResetWarning,0824.4,5.01,000.00,019.1,018.5,000.0,027.5,020.0,3.7,0000.0,0004.41,0001.90,0001.51
